When you browse on this site, cookies collect data to enhance your experience and personalize the content and advertising you see.
Visit our Privacy Policy to learn more. By continuing to use the site, you agree to this use of cookies and data.
  • In Schweiz
  • Länderverzeichnis
  • Für 7 Tage
  • Wassertemperatur
  • Satellitenkarten
  • Wetterkarte
  • Widgets
  • user-avatar
    Anmelden

    Stündliche Wetter Serebryanka

    Heute, 18 November, Sonntag

    Zeit Temperatur Niederschläge Wind Luftdruck Luftfeuchtigkeit
    00:00 -3°C° 0 mm 2 m/S 766 mmHg 50%
    01:00 -3°C° 0 mm 2 m/S 765 mmHg 50%
    02:00 -3°C° 0 mm 2 m/S 765 mmHg 50%
    03:00 -1°C° 0 mm 1 m/S 765 mmHg 47%
    04:00 -1°C° 0 mm 1 m/S 764 mmHg 46%
    05:00 -1°C° 0 mm 1 m/S 764 mmHg 46%
    06:00 -3°C° 0 mm 0 m/S 764 mmHg 46%
    07:00 -2°C° 0 mm 0 m/S 764 mmHg 45%
    08:00 -2°C° 0 mm 0 m/S 763 mmHg 43%
    09:00 -1°C° 0 mm 0 m/S 763 mmHg 42%
    10:00 0°C° 0 mm 0 m/S 763 mmHg 39%
    11:00 +1°C° 0 mm 0 m/S 762 mmHg 36%
    12:00 +2°C° 0 mm 0 m/S 762 mmHg 34%
    13:00 +2°C° 0 mm 0 m/S 762 mmHg 34%
    14:00 +3°C° 0 mm 0 m/S 762 mmHg 34%
    15:00 +3°C° 0 mm 0 m/S 762 mmHg 34%
    16:00 +2°C° 0 mm 0 m/S 761 mmHg 38%
    17:00 +1°C° 0 mm 0 m/S 761 mmHg 41%
    18:00 0°C° 0 mm 0 m/S 761 mmHg 45%
    19:00 +1°C° 0 mm 1 m/S 761 mmHg 46%
    20:00 +1°C° 0 mm 1 m/S 761 mmHg 47%
    21:00 0°C° 0 mm 1 m/S 762 mmHg 48%
    22:00 0°C° 0 mm 1 m/S 762 mmHg 49%
    23:00 0°C° 0 mm 1 m/S 762 mmHg 50%

    Morgen, 19 November, Montag

    Zeit Temperatur Niederschläge Wind Luftdruck Luftfeuchtigkeit
    00:00 0°C° 0 mm 1 m/S 762 mmHg 51%
    01:00 0°C° 0 mm 1 m/S 762 mmHg 54%
    02:00 0°C° 0 mm 1 m/S 762 mmHg 56%
    03:00 -1°C° 0 mm 1 m/S 762 mmHg 59%
    04:00 -1°C° 0 mm 1 m/S 762 mmHg 60%
    05:00 -1°C° 0 mm 1 m/S 762 mmHg 62%
    06:00 -1°C° 0 mm 1 m/S 762 mmHg 63%
    07:00 -3°C° 0 mm 2 m/S 762 mmHg 63%
    08:00 -3°C° 0 mm 2 m/S 762 mmHg 62%
    09:00 -2°C° 0 mm 2 m/S 762 mmHg 62%
    10:00 -1°C° 0 mm 3 m/S 762 mmHg 60%
    11:00 0°C° 0 mm 3 m/S 762 mmHg 59%
    12:00 +1°C° 0 mm 3 m/S 762 mmHg 57%
    13:00 +1°C° 0 mm 3 m/S 762 mmHg 59%
    14:00 +1°C° 0 mm 3 m/S 762 mmHg 61%
    15:00 +2°C° 0 mm 3 m/S 762 mmHg 63%
    16:00 +1°C° 0 mm 3 m/S 762 mmHg 66%
    17:00 -1°C° 0 mm 4 m/S 761 mmHg 70%
    18:00 -1°C° 0 mm 4 m/S 761 mmHg 73%
    19:00 -1°C° 0 mm 4 m/S 761 mmHg 71%
    20:00 -1°C° 0 mm 4 m/S 761 mmHg 70%
    21:00 -1°C° 0 mm 4 m/S 761 mmHg 68%
    22:00 -1°C° 0 mm 4 m/S 761 mmHg 66%
    23:00 -1°C° 0 mm 4 m/S 761 mmHg 64%

    übermorgen, 20 November, Dienstag

    Zeit Temperatur Niederschläge Wind Luftdruck Luftfeuchtigkeit
    00:00 -1°C° 0 mm 5 m/S 761 mmHg 62%
    01:00 -1°C° 0.1 mm 5 m/S 760 mmHg 63%
    02:00 -1°C° 0.1 mm 5 m/S 760 mmHg 63%
    03:00 -1°C° 0.1 mm 5 m/S 760 mmHg 64%
    04:00 -1°C° 0.2 mm 5 m/S 759 mmHg 68%
    05:00 -2°C° 0.2 mm 6 m/S 759 mmHg 71%
    06:00 -2°C° 0.2 mm 6 m/S 758 mmHg 75%
    07:00 -2°C° 0.7 mm 6 m/S 758 mmHg 79%
    08:00 -2°C° 0.7 mm 6 m/S 758 mmHg 82%
    09:00 -2°C° 0.7 mm 6 m/S 758 mmHg 86%
    10:00 -2°C° 1.1 mm 6 m/S 758 mmHg 88%
    11:00 -2°C° 1.1 mm 6 m/S 758 mmHg 89%
    12:00 -2°C° 1.1 mm 6 m/S 758 mmHg 91%
    13:00 -2°C° 0.5 mm 6 m/S 758 mmHg 91%
    14:00 -2°C° 0.5 mm 6 m/S 758 mmHg 91%
    15:00 -2°C° 0.5 mm 6 m/S 757 mmHg 92%
    16:00 -2°C° 0.2 mm 6 m/S 758 mmHg 91%
    17:00 -2°C° 0.2 mm 6 m/S 758 mmHg 89%
    18:00 -2°C° 0.2 mm 6 m/S 758 mmHg 88%
    19:00 -2°C° 0 mm 5 m/S 758 mmHg 87%
    20:00 -2°C° 0 mm 5 m/S 759 mmHg 87%
    21:00 -3°C° 0 mm 4 m/S 759 mmHg 86%
    22:00 -3°C° 0 mm 4 m/S 759 mmHg 85%
    23:00 -3°C° 0 mm 4 m/S 759 mmHg 85%

    21 November, Mittwoch

    Zeit Temperatur Niederschläge Wind Luftdruck Luftfeuchtigkeit
    00:00 -3°C° 0 mm 4 m/S 760 mmHg 84%
    01:00 -4°C° 0 mm 4 m/S 760 mmHg 85%
    02:00 -4°C° 0 mm 3 m/S 760 mmHg 86%
    03:00 -5°C° 0 mm 3 m/S 760 mmHg 87%
    04:00 -5°C° 0 mm 3 m/S 761 mmHg 87%
    05:00 -6°C° 0 mm 3 m/S 761 mmHg 88%
    06:00 -6°C° 0 mm 3 m/S 761 mmHg 88%
    07:00 -6°C° 0 mm 3 m/S 761 mmHg 88%
    08:00 -6°C° 0 mm 3 m/S 761 mmHg 89%
    09:00 -5°C° 0 mm 3 m/S 761 mmHg 89%
    10:00 -4°C° 0 mm 3 m/S 761 mmHg 88%
    11:00 -2°C° 0 mm 3 m/S 761 mmHg 86%
    12:00 -1°C° 0 mm 3 m/S 761 mmHg 85%
    13:00 -1°C° 0 mm 3 m/S 761 mmHg 86%
    14:00 -1°C° 0 mm 3 m/S 761 mmHg 86%
    15:00 -1°C° 0 mm 3 m/S 761 mmHg 86%
    16:00 -2°C° 0 mm 3 m/S 761 mmHg 88%
    17:00 -4°C° 0 mm 3 m/S 761 mmHg 89%
    18:00 -4°C° 0 mm 2 m/S 761 mmHg 90%
    19:00 -4°C° 0 mm 2 m/S 761 mmHg 90%
    20:00 -4°C° 0 mm 2 m/S 761 mmHg 89%
    21:00 -4°C° 0 mm 2 m/S 761 mmHg 89%
    22:00 -5°C° 0 mm 2 m/S 761 mmHg 88%
    23:00 -5°C° 0 mm 2 m/S 761 mmHg 88%

    22 November, Donnerstag

    Zeit Temperatur Niederschläge Wind Luftdruck Luftfeuchtigkeit
    00:00 -3°C° 0 mm 1 m/S 761 mmHg 88%
    01:00 -5°C° 0 mm 2 m/S 761 mmHg 88%
    02:00 -5°C° 0 mm 2 m/S 761 mmHg 88%
    03:00 -5°C° 0 mm 2 m/S 761 mmHg 88%
    04:00 -5°C° 0 mm 2 m/S 761 mmHg 88%
    05:00 -5°C° 0 mm 2 m/S 760 mmHg 88%
    06:00 -6°C° 0 mm 2 m/S 760 mmHg 89%
    07:00 -5°C° 0 mm 2 m/S 760 mmHg 89%
    08:00 -5°C° 0 mm 2 m/S 761 mmHg 89%
    09:00 -5°C° 0 mm 2 m/S 761 mmHg 89%
    10:00 -4°C° 0 mm 2 m/S 761 mmHg 87%
    11:00 -3°C° 0 mm 2 m/S 761 mmHg 85%
    12:00 -2°C° 0 mm 2 m/S 761 mmHg 83%
    13:00 -2°C° 0 mm 2 m/S 760 mmHg 83%
    14:00 -2°C° 0 mm 2 m/S 760 mmHg 83%
    15:00 -1°C° 0 mm 2 m/S 760 mmHg 83%
    16:00 -2°C° 0 mm 2 m/S 760 mmHg 85%
    17:00 -3°C° 0 mm 2 m/S 760 mmHg 87%
    18:00 -4°C° 0 mm 2 m/S 760 mmHg 88%
    19:00 -4°C° 0 mm 2 m/S 760 mmHg 88%
    20:00 -4°C° 0 mm 2 m/S 761 mmHg 87%
    21:00 -5°C° 0 mm 2 m/S 761 mmHg 86%
    22:00 -5°C° 0 mm 2 m/S 761 mmHg 86%
    23:00 -5°C° 0 mm 2 m/S 761 mmHg 86%

    23 November, Freitag

    Zeit Temperatur Niederschläge Wind Luftdruck Luftfeuchtigkeit
    00:00 -5°C° 0 mm 2 m/S 761 mmHg 86%
    01:00 -5°C° 0 mm 2 m/S 761 mmHg 87%
    02:00 -5°C° 0 mm 2 m/S 762 mmHg 88%
    03:00 -6°C° 0 mm 2 m/S 762 mmHg 89%
    04:00 -6°C° 0 mm 2 m/S 762 mmHg 89%
    05:00 -6°C° 0 mm 2 m/S 762 mmHg 90%
    06:00 -6°C° 0 mm 2 m/S 763 mmHg 90%
    07:00 -6°C° 0 mm 2 m/S 763 mmHg 90%
    08:00 -5°C° 0 mm 2 m/S 764 mmHg 90%
    09:00 -5°C° 0 mm 2 m/S 764 mmHg 90%
    10:00 -4°C° 0 mm 2 m/S 765 mmHg 88%
    11:00 -3°C° 0 mm 2 m/S 765 mmHg 85%
    12:00 -2°C° 0 mm 2 m/S 765 mmHg 83%
    13:00 -1°C° 0 mm 2 m/S 765 mmHg 83%
    14:00 -1°C° 0 mm 2 m/S 765 mmHg 83%
    15:00 +1°C° 0 mm 1 m/S 765 mmHg 82%
    16:00 0°C° 0 mm 1 m/S 766 mmHg 84%
    17:00 -1°C° 0 mm 1 m/S 766 mmHg 85%
    18:00 -2°C° 0 mm 1 m/S 766 mmHg 86%
    19:00 -2°C° 0 mm 1 m/S 766 mmHg 86%
    20:00 -3°C° 0 mm 0 m/S 766 mmHg 86%
    21:00 -3°C° 0 mm 0 m/S 767 mmHg 86%
    22:00 -4°C° 0 mm 0 m/S 767 mmHg 86%
    23:00 -3°C° 0 mm 1 m/S 766 mmHg 86%
    Mehr zeigen